FW3135 Weather Reports


Display with metric or nautical units.
time (UTC)temp
F
wind
direction
speed
MPH
gust
MPH
rain 1hr
in
rain 24hr
in
rain mn
in
humidity
%
barometer
mb
20260831110340 76 333 6.0 14.0 0.00 0.00 0.00 61 1023.0
20260831105829 76 104 8.0 14.0 0.00 0.00 0.00 62 1023.0
20260831105320 75 106 4.0 14.0 0.00 0.00 0.00 63 1022.9
20260831104831 75 42 7.0 15.0 0.00 0.00 0.00 64 1023.0
20260831104334 75 68 6.0 16.0 0.00 0.00 0.00 64 1022.9
20260831103822 75 86 6.0 16.0 0.00 0.00 0.00 64 1022.9
20260831103329 75 72 5.0 13.0 0.00 0.00 0.00 64 1023.0
20260831102834 75 80 7.0 15.0 0.00 0.00 0.00 65 1023.1
20260831101826 74 336 4.0 14.0 0.00 0.00 0.00 66 1023.0
20260831101322 74 360 5.0 14.0 0.00 0.00 0.00 66 1023.1
20260831100900 74 341 5.0 14.0 0.00 0.00 0.00 66 1023.1
20260831100315 74 347 6.0 15.0 0.00 0.00 0.00 68 1023.1
20260831095836 73 332 7.0 17.0 0.00 0.00 0.00 68 1023.0
20260831095353 73 33 7.0 17.0 0.00 0.00 0.00 68 1023.0
20260831094848 73 42 5.0 14.0 0.00 0.00 0.00 69 1023.0
20260831094329 73 53 8.0 15.0 0.00 0.00 0.00 69 1023.0
20260831093826 72 34 8.0 18.0 0.00 0.00 0.00 71 1023.0
20260831093350 72 343 9.0 18.0 0.00 0.00 0.00 71 1023.0
20260831092824 72 22 7.0 19.0 0.00 0.00 0.00 72 1023.1
20260831092328 72 311 10.0 20.0 0.00 0.00 0.00 72 1023.0
20260831091839 71 334 10.0 20.0 0.00 0.00 0.00 72 1022.9
20260831091330 71 331 8.0 14.0 0.00 0.00 0.00 73 1023.0
20260831090827 71 50 3.0 11.0 0.00 0.00 0.00 74 1023.0
20260831090329 71 62 5.0 13.0 0.00 0.00 0.00 74 1023.1
20260831085824 71 360 7.0 13.0 0.00 0.00 0.00 75 1023.0
20260831085327 71 90 2.0 9.0 0.00 0.00 0.00 76 1023.1
20260831084820 70 311 1.0 12.0 0.00 0.00 0.00 76 1023.0
20260831084315 70 34 5.0 15.0 0.00 0.00 0.00 76 1022.9
20260831083819 70 355 8.0 15.0 0.00 0.00 0.00 77 1022.9
20260831083315 69 51 6.0 15.0 0.00 0.00 0.00 77 1022.9
20260831082839 69 76 6.0 12.0 0.00 0.00 0.00 78 1023.0
20260831082315 69 65 6.0 16.0 0.00 0.00 0.00 78 1022.9
20260831081832 69 40 7.0 16.0 0.00 0.00 0.00 79 1023.0
20260831081335 69 57 7.0 15.0 0.00 0.00 0.00 79 1022.9
20260831080831 68 360 7.0 15.0 0.00 0.00 0.00 80 1022.9
20260831080330 68 101 7.0 14.0 0.00 0.00 0.00 80 1022.9
20260831075830 68 42 6.0 14.0 0.00 0.00 0.00 81 1023.0
20260831075328 68 45 3.0 15.0 0.00 0.00 0.00 81 1022.9
20260831074825 68 61 7.0 15.0 0.00 0.00 0.00 81 1022.9
20260831074320 68 64 3.0 8.0 0.00 0.00 0.00 82 1022.9
20260831073817 67 344 3.0 13.0 0.00 0.00 0.00 82 1022.9
20260831073341 67 360 6.0 12.0 0.00 0.00 0.00 82 1022.9
20260831072844 67 42 3.0 10.0 0.00 0.00 0.00 82 1022.8
20260831072314 67 34 2.0 13.0 0.00 0.00 0.00 83 1022.7
20260831071817 67 98 6.0 15.0 0.00 0.00 0.00 83 1022.6
20260831071314 67 40 5.0 15.0 0.00 0.00 0.00 83 1022.6
20260831070838 66 49 7.0 14.0 0.00 0.00 0.00 83 1022.5
20260831070334 66 310 4.0 11.0 0.00 0.00 0.00 83 1022.3
20260831065830 66 54 3.0 12.0 0.00 0.00 0.00 83 1022.4
20260831065319 66 341 5.0 12.0 0.00 0.00 0.00 84 1022.3
20260831064821 66 48 3.0 14.0 0.00 0.00 0.00 84 1022.3
20260831064314 66 355 5.0 14.0 0.00 0.00 0.00 84 1022.2
20260831063852 66 44 7.0 14.0 0.00 0.00 0.00 84 1022.3
20260831063332 66 69 4.0 9.0 0.00 0.00 0.00 84 1022.3
20260831062829 65 104 3.0 10.0 0.00 0.00 0.00 84 1022.2
20260831062335 65 340 3.0 12.0 0.00 0.00 0.00 84 1022.2
20260831061829 65 42 4.0 12.0 0.00 0.00 0.00 84 1022.3
20260831061331 65 338 4.0 9.0 0.00 0.00 0.00 84 1022.2
20260831060827 65 360 2.0 7.0 0.00 0.00 0.00 84 1022.2
20260831060323 65 117 2.0 9.0 0.00 0.00 0.00 84 1022.1
20260831055825 65 348 3.0 9.0 0.00 0.00 0.00 84 1022.1
20260831055348 65 347 3.0 9.0 0.00 0.00 0.00 84 1022.1
20260831054829 65 98 5.0 9.0 0.00 0.00 0.00 84 1022.1
20260831054344 65 305 3.0 8.0 0.00 0.00 0.00 83 1022.3
20260831053828 65 350 2.0 10.0 0.00 0.00 0.00 83 1022.2
20260831053351 65 78 3.0 12.0 0.00 0.00 0.00 83 1022.2
20260831052826 65 122 4.0 9.0 0.00 0.00 0.00 83 1022.2
20260831052320 65 42 3.0 10.0 0.00 0.00 0.00 83 1022.2
20260831051821 65 82 2.0 13.0 0.00 0.00 0.00 83 1022.2
20260831051334 65 67 3.0 13.0 0.00 0.00 0.00 83 1022.1
20260831050816 65 66 4.0 14.0 0.00 0.00 0.00 83 1022.0
20260831050332 65 42 4.0 14.0 0.00 0.00 0.00 83 1022.2
20260831045814 65 332 3.0 11.0 0.00 0.00 0.00 83 1022.2
20260831045357 65 46 4.0 11.0 0.00 0.00 0.00 83 1022.2
20260831044813 65 46 4.0 11.0 0.00 0.00 0.00 83 1022.2
20260831044337 65 31 5.0 12.0 0.00 0.00 0.00 83 1022.3
20260831043837 66 105 6.0 12.0 0.00 0.00 0.00 83 1022.3
20260831043312 66 63 4.0 12.0 0.00 0.00 0.00 83 1022.3
20260831042829 66 30 6.0 12.0 0.00 0.00 0.00 83 1022.3
20260831042326 66 72 4.0 12.0 0.00 0.00 0.00 83 1022.4
20260831041828 66 32 5.0 12.0 0.00 0.00 0.00 83 1022.4
20260831041344 66 57 3.0 13.0 0.00 0.00 0.00 83 1022.3
20260831040826 66 36 3.0 12.0 0.00 0.00 0.00 83 1022.4
20260831040323 66 49 5.0 12.0 0.00 0.00 0.00 83 1022.4
20260831035824 66 53 4.0 15.0 0.00 0.00 0.00 84 1022.3
20260831035340 66 329 7.0 15.0 0.00 0.00 0.00 84 1022.3
20260831034822 66 34 7.0 13.0 0.00 0.00 0.00 84 1022.4
20260831034318 66 63 3.0 10.0 0.00 0.00 0.00 84 1022.5
20260831033818 66 46 4.0 10.0 0.00 0.00 0.00 84 1022.5
20260831033315 66 348 4.0 8.0 0.00 0.00 0.00 84 1022.5
20260831032816 66 47 3.0 7.0 0.00 0.00 0.00 84 1022.5
20260831032313 66 360 3.0 9.0 0.00 0.00 0.00 84 1022.6
20260831031836 66 58 2.0 10.0 0.00 0.00 0.00 83 1022.5
20260831031328 66 355 5.0 10.0 0.00 0.00 0.00 84 1022.6
20260831030831 66 314 1.0 8.0 0.00 0.00 0.00 83 1022.5
20260831030328 66 46 3.0 11.0 0.00 0.00 0.00 83 1022.6
20260831025829 66 43 2.0 9.0 0.00 0.00 0.00 83 1022.6
20260831025325 66 349 1.0 9.0 0.00 0.00 0.00 83 1022.7
20260831024850 66 92 1.0 5.0 0.00 0.00 0.00 83 1022.6
20260831024324 66 121 2.0 5.0 0.00 0.00 0.00 83 1022.6
20260831023824 66 66 3.0 6.0 0.00 0.00 0.00 83 1022.5
20260831023325 66 80 2.0 11.0 0.00 0.00 0.00 83 1022.6
20260831022820 66 59 4.0 12.0 0.00 0.00 0.00 83 1022.6
20260831022345 66 302 1.0 9.0 0.00 0.00 0.00 83 1022.5
20260831021820 66 42 2.0 10.0 0.00 0.00 0.00 83 1022.5
20260831021317 66 348 3.0 11.0 0.00 0.00 0.00 83 1022.6
20260831020812 66 43 3.0 11.0 0.00 0.00 0.00 83 1022.5
20260831020336 66 345 2.0 10.0 0.00 0.00 0.00 83 1022.5
20260831015831 66 355 6.0 10.0 0.00 0.00 0.00 83 1022.6
20260831015333 66 348 3.0 10.0 0.00 0.00 0.00 83 1022.6
20260831014830 67 81 3.0 8.0 0.00 0.00 0.00 83 1022.5
20260831014334 67 360 1.0 6.0 0.00 0.00 0.00 83 1022.5
20260831013831 67 118 2.0 8.0 0.00 0.00 0.00 83 1022.6
20260831013328 67 75 4.0 9.0 0.00 0.00 0.00 83 1022.6
20260831012848 67 319 3.0 9.0 0.00 0.00 0.00 83 1022.7
20260831012322 67 104 2.0 9.0 0.00 0.00 0.00 83 1022.7
20260831011845 67 82 1.0 9.0 0.00 0.00 0.00 83 1022.7
20260831011325 67 92 3.0 10.0 0.00 0.00 0.00 83 1022.8
20260831010819 67 338 6.0 16.0 0.00 0.00 0.00 83 1022.7
20260831010342 67 315 4.0 16.0 0.00 0.00 0.00 83 1022.6
20260831005820 67 33 6.0 18.0 0.00 0.00 0.00 83 1022.6
20260831005346 67 71 7.0 18.0 0.00 0.00 0.00 83 1022.4
20260831004818 67 360 5.0 15.0 0.00 0.00 0.00 83 1022.4
20260831004316 67 342 7.0 19.0 0.00 0.00 0.00 83 1022.6
20260831003814 67 82 9.0 18.0 0.00 0.00 0.00 83 1022.5
20260831003355 67 69 7.0 17.0 0.00 0.00 0.00 83 1022.4
20260831002851 67 30 8.0 19.0 0.00 0.00 0.00 83 1022.4
20260831002331 67 55 10.0 23.0 0.00 0.00 0.00 83 1022.5
20260831001853 67 103 7.0 23.0 0.00 0.00 0.00 83 1022.5
20260831001327 67 32 11.0 20.0 0.00 0.00 0.00 83 1022.3
20260831000823 67 44 10.0 21.0 0.00 0.00 0.00 83 1022.4
20260831000327 67 355 10.0 20.0 0.00 0.00 0.00 83 1022.4
20260830235819 67 63 12.0 20.0 0.00 0.00 0.00 83 1022.4
20260830235323 67 56 11.0 21.0 0.00 0.00 0.00 83 1022.5
20260830234818 67 360 9.0 21.0 0.00 0.00 0.00 83 1022.6
20260830234315 67 27 10.0 21.0 0.00 0.00 0.00 83 1022.6
20260830233839 67 334 12.0 18.0 0.00 0.00 0.00 83 1022.6
20260830233340 67 41 10.0 22.0 0.00 0.00 0.00 83 1022.7
20260830232829 67 54 12.0 22.0 0.00 0.00 0.00 83 1022.7
20260830232323 67 63 8.0 20.0 0.00 0.00 0.00 83 1022.5
20260830231825 67 360 11.0 20.0 0.00 0.00 0.00 83 1022.6
20260830231320 67 26 10.0 19.0 0.00 0.00 0.00 83 1022.6
20260830230818 68 80 10.0 23.0 0.00 0.00 0.00 83 1022.6
20260830230315 68 53 12.0 23.0 0.00 0.00 0.00 83 1022.4
20260830225836 68 39 11.0 23.0 0.00 0.00 0.00 83 1022.5
20260830225333 68 360 11.0 23.0 0.00 0.00 0.00 83 1022.5
20260830224816 68 72 12.0 23.0 0.00 0.00 0.00 83 1022.3
20260830224328 68 34 10.0 28.0 0.00 0.00 0.00 83 1022.3
20260830223829 68 360 14.0 28.0 0.00 0.00 0.00 83 1022.2
20260830223323 68 360 9.0 22.0 0.00 0.00 0.00 83 1022.4
20260830222827 68 77 12.0 22.0 0.00 0.00 0.00 83 1022.3
20260830222319 68 53 11.0 21.0 0.00 0.00 0.00 83 1022.2
20260830221819 68 338 10.0 24.0 0.00 0.00 0.00 83 1022.2
20260830221315 68 360 11.0 25.0 0.00 0.00 0.00 83 1022.1
20260830220817 68 360 11.0 23.0 0.00 0.00 0.00 83 1022.2
20260830220338 68 40 13.0 23.0 0.00 0.00 0.00 83 1022.2
20260830215812 68 332 12.0 23.0 0.00 0.00 0.00 83 1022.2
20260830215334 68 82 12.0 21.0 0.00 0.00 0.00 83 1022.2
20260830214859 68 52 11.0 21.0 0.00 0.00 0.00 82 1022.2
20260830214333 68 42 12.0 20.0 0.00 0.00 0.00 82 1022.1
20260830213828 68 355 11.0 21.0 0.00 0.00 0.00 82 1021.9
20260830213329 68 355 11.0 21.0 0.00 0.00 0.00 82 1022.0
20260830212825 68 58 12.0 23.0 0.00 0.00 0.00 82 1021.9
20260830212328 69 360 12.0 23.0 0.00 0.00 0.00 81 1021.9
20260830211825 69 59 9.0 26.0 0.00 0.00 0.00 81 1021.8
20260830211320 69 312 13.0 22.0 0.00 0.00 0.00 81 1021.9
20260830210843 69 38 11.0 25.0 0.00 0.00 0.00 81 1021.8
20260830210317 69 360 12.0 25.0 0.00 0.00 0.00 81 1021.9
20260830205820 69 38 10.0 20.0 0.00 0.00 0.00 81 1021.8
20260830205343 69 9 12.0 20.0 0.00 0.00 0.00 81 1021.8
20260830204820 69 360 10.0 20.0 0.00 0.00 0.00 81 1021.8
20260830204341 69 360 12.0 20.0 0.00 0.00 0.00 81 1021.9
20260830203815 69 42 10.0 22.0 0.00 0.00 0.00 80 1021.8
20260830203358 69 360 11.0 22.0 0.00 0.00 0.00 80 1021.7
20260830202830 69 80 11.0 21.0 0.00 0.00 0.00 80 1021.7
20260830202319 69 343 11.0 23.0 0.00 0.00 0.00 79 1021.6
20260830201837 70 53 11.0 23.0 0.00 0.00 0.00 79 1021.5
20260830201325 70 51 10.0 19.0 0.00 0.00 0.00 79 1021.6
20260830200858 70 37 11.0 21.0 0.00 0.00 0.00 78 1021.5
20260830200327 70 355 10.0 21.0 0.00 0.00 0.00 78 1021.6
20260830195824 70 360 12.0 21.0 0.00 0.00 0.00 78 1021.5
20260830195347 70 360 11.0 22.0 0.00 0.00 0.00 77 1021.5
20260830194813 70 319 10.0 27.0 0.00 0.00 0.00 77 1021.3
20260830194336 70 14 11.0 27.0 0.00 0.00 0.00 76 1021.3
20260830193830 71 65 10.0 20.0 0.00 0.00 0.00 76 1021.2
20260830193346 71 32 11.0 20.0 0.00 0.00 0.00 76 1021.1
20260830192821 71 360 12.0 20.0 0.00 0.00 0.00 76 1021.1
20260830192325 71 355 10.0 22.0 0.00 0.00 0.00 75 1021.0
20260830191842 71 61 11.0 22.0 0.00 0.00 0.00 75 1021.1
20260830191325 72 360 11.0 21.0 0.00 0.00 0.00 75 1021.2
20260830190822 72 355 9.0 20.0 0.00 0.00 0.00 74 1020.9
20260830190318 72 340 9.0 20.0 0.00 0.00 0.00 74 1021.0
20260830185819 72 360 8.0 16.0 0.00 0.00 0.00 74 1021.0
20260830185316 73 55 8.0 16.0 0.00 0.00 0.00 73 1021.0
20260830184820 73 106 7.0 18.0 0.00 0.00 0.00 73 1021.0
20260830184315 73 51 7.0 18.0 0.00 0.00 0.00 72 1021.0
20260830183818 74 44 8.0 17.0 0.00 0.00 0.00 72 1021.0
20260830183358 74 331 8.0 18.0 0.00 0.00 0.00 72 1021.0
20260830182839 74 42 7.0 19.0 0.00 0.00 0.00 72 1021.2
20260830182314 74 34 9.0 19.0 0.00 0.00 0.00 72 1021.1
20260830181858 74 46 10.0 20.0 0.00 0.00 0.00 72 1021.2
20260830181333 75 342 10.0 20.0 0.00 0.00 0.00 71 1021.0
20260830180830 75 48 11.0 20.0 0.00 0.00 0.00 70 1021.1
20260830180354 75 360 8.0 17.0 0.00 0.00 0.00 69 1021.1
20260830175837 75 326 10.0 17.0 0.00 0.00 0.00 69 1021.2
20260830175315 75 360 9.0 19.0 0.00 0.00 0.00 69 1021.1
20260830174831 75 360 11.0 19.0 0.00 0.00 0.00 68 1021.0
20260830174335 75 341 11.0 18.0 0.00 0.00 0.00 67 1021.1
20260830173859 76 355 9.0 21.0 0.00 0.00 0.00 67 1021.0
20260830173315 76 9 12.0 21.0 0.00 0.00 0.00 67 1021.1
20260830172858 76 42 9.0 18.0 0.00 0.00 0.00 68 1021.0
20260830172333 76 89 8.0 17.0 0.00 0.00 0.00 68 1021.1
20260830171835 76 360 9.0 22.0 0.00 0.00 0.00 68 1021.1
20260830171331 76 360 8.0 22.0 0.00 0.00 0.00 68 1021.0
20260830170827 76 360 11.0 21.0 0.00 0.00 0.00 68 1021.0
20260830170348 76 59 7.0 22.0 0.00 0.00 0.00 68 1020.9
20260830165823 77 360 9.0 22.0 0.00 0.00 0.00 67 1021.0
20260830165341 77 360 10.0 21.0 0.00 0.00 0.00 67 1021.0
20260830164841 77 355 9.0 21.0 0.00 0.00 0.00 67 1021.0
20260830164327 77 360 9.0 22.0 0.00 0.00 0.00 67 1021.1
20260830163819 77 61 11.0 22.0 0.00 0.00 0.00 66 1021.1
20260830163337 77 355 9.0 18.0 0.00 0.00 0.00 66 1021.1
20260830162830 77 69 7.0 18.0 0.00 0.00 0.00 66 1021.1
20260830162326 78 360 8.0 19.0 0.00 0.00 0.00 66 1021.1
20260830161829 78 360 12.0 19.0 0.00 0.00 0.00 66 1021.2
20260830161320 78 94 8.0 19.0 0.00 0.00 0.00 66 1021.2
20260830160817 78 68 9.0 19.0 0.00 0.00 0.00 66 1021.3
20260830160320 78 360 10.0 20.0 0.00 0.00 0.00 65 1021.2
20260830155815 78 70 12.0 20.0 0.00 0.00 0.00 65 1021.4
20260830155319 78 346 8.0 15.0 0.00 0.00 0.00 66 1021.2
20260830154815 79 75 8.0 18.0 0.00 0.00 0.00 65 1021.4
20260830154336 79 360 10.0 18.0 0.00 0.00 0.00 65 1021.4
20260830153836 79 344 7.0 15.0 0.00 0.00 0.00 65 1021.4
20260830153328 79 328 7.0 15.0 0.00 0.00 0.00 64 1021.5
20260830152824 79 342 7.0 16.0 0.00 0.00 0.00 65 1021.4
20260830152326 79 360 8.0 16.0 0.00 0.00 0.00 65 1021.4
20260830151842 79 63 8.0 16.0 0.00 0.00 0.00 65 1021.4
20260830151343 79 34 6.0 14.0 0.00 0.00 0.00 66 1021.6
20260830150816 79 321 9.0 16.0 0.00 0.00 0.00 65 1021.6
20260830150319 79 360 10.0 16.0 0.00 0.00 0.00 65 1021.6
20260830145838 80 82 7.0 13.0 0.00 0.00 0.00 65 1021.5
20260830145314 80 299 4.0 12.0 0.00 0.00 0.00 64 1021.5
20260830144840 80 344 5.0 13.0 0.00 0.00 0.00 65 1021.5
20260830144331 80 360 6.0 13.0 0.00 0.00 0.00 64 1021.5
20260830143825 81 46 5.0 11.0 0.00 0.00 0.00 63 1021.5
20260830143328 81 82 5.0 11.0 0.00 0.00 0.00 64 1021.5
20260830142824 80 46 3.0 11.0 0.00 0.00 0.00 64 1021.5
20260830142349 81 335 6.0 11.0 0.00 0.00 0.00 63 1021.6
20260830141829 81 105 3.0 8.0 0.00 0.00 0.00 63 1021.6
20260830141316 80 309 5.0 11.0 0.00 0.00 0.00 64 1021.6
20260830140819 79 42 4.0 12.0 0.00 0.00 0.00 64 1021.7
20260830140333 79 360 5.0 12.0 0.00 0.00 0.00 64 1021.7
20260830135832 79 32 5.0 12.0 0.00 0.00 0.00 63 1021.7
20260830135334 79 38 7.0 12.0 0.00 0.00 0.00 65 1021.6
20260830134826 79 355 5.0 11.0 0.00 0.00 0.00 65 1021.7
20260830134326 79 46 5.0 13.0 0.00 0.00 0.00 66 1021.8
20260830133823 78 327 7.0 13.0 0.00 0.00 0.00 65 1021.8
20260830133318 79 46 6.0 14.0 0.00 0.00 0.00 66 1021.9
20260830132819 78 119 7.0 14.0 0.00 0.00 0.00 66 1021.8
20260830132316 78 81 5.0 12.0 0.00 0.00 0.00 66 1021.9
20260830131836 78 69 8.0 14.0 0.00 0.00 0.00 66 1021.8
20260830131358 78 67 7.0 14.0 0.00 0.00 0.00 67 1022.0
20260830130831 78 49 5.0 11.0 0.00 0.00 0.00 67 1021.9
20260830130326 78 70 6.0 14.0 0.00 0.00 0.00 67 1022.0
20260830125829 78 360 6.0 14.0 0.00 0.00 0.00 68 1022.1
20260830125352 78 323 8.0 14.0 0.00 0.00 0.00 68 1022.1
20260830124823 78 74 6.0 14.0 0.00 0.00 0.00 68 1022.2
20260830124319 78 48 7.0 12.0 0.00 0.00 0.00 69 1022.2
20260830123838 78 82 6.0 12.0 0.00 0.00 0.00 70 1022.2
20260830123329 77 43 5.0 14.0 0.00 0.00 0.00 69 1022.3
20260830122831 77 49 7.0 14.0 0.00 0.00 0.00 68 1022.2
20260830122334 77 55 5.0 10.0 0.00 0.00 0.00 68 1022.2
20260830121842 77 309 4.0 10.0 0.00 0.00 0.00 69 1022.4
20260830121323 77 309 4.0 14.0 0.00 0.00 0.00 70 1022.5
20260830120817 76 304 9.0 15.0 0.00 0.00 0.00 69 1022.5
20260830120314 76 302 7.0 15.0 0.00 0.00 0.00 70 1022.5
20260830115816 76 61 9.0 15.0 0.00 0.00 0.00 69 1022.6
20260830115317 77 360 6.0 13.0 0.00 0.00 0.00 70 1022.6
20260830114832 77 311 3.0 11.0 0.00 0.00 0.00 71 1022.6
20260830114334 76 316 4.0 11.0 0.00 0.00 0.00 72 1022.6
20260830113824 76 355 3.0 12.0 0.00 0.00 0.00 73 1022.7
20260830113325 75 47 3.0 13.0 0.00 0.00 0.00 74 1022.6
20260830112822 75 44 9.0 13.0 0.00 0.00 0.00 74 1022.8
20260830112346 75 355 4.0 13.0 0.00 0.00 0.00 74 1022.8
20260830111822 74 42 4.0 11.0 0.00 0.00 0.00 76 1022.7
20260830111324 74 316 5.0 14.0 0.00 0.00 0.00 76 1022.8
20260830110840 75 349 7.0 14.0 0.00 0.00 0.00 76 1022.8